Time,TemperatureF,DewpointF,PressureIn,WindDirection,WindDirectionDegrees,WindSpeedMPH,WindSpeedGustMPH,Humidity,HourlyPrecipIn,Conditions,Clouds,dailyrainin,SoftwareType,DateUTC
2013-11-21 00:02:00,43.6,29.3,29.94,North,0,2.0,5.4,57,0.00,,,0.00,WUHU216HW,2013-11-21 07:02:00,
2013-11-21 00:07:00,43.6,29.7,29.94,North,0,2.5,5.1,58,0.00,,,0.00,WUHU216HW,2013-11-21 07:07:00,
2013-11-21 00:12:00,43.6,30.2,29.95,North,0,1.8,5.6,59,0.00,,,0.00,WUHU216HW,2013-11-21 07:12:00,
2013-11-21 00:17:00,43.4,30.4,29.95,NE,45,1.6,5.6,60,0.00,,,0.00,WUHU216HW,2013-11-21 07:17:00,
2013-11-21 00:22:00,43.2,31.1,29.95,NNE,23,16.3,16.3,62,0.00,,,0.00,WUHU216HW,2013-11-21 07:22:00,
2013-11-21 00:27:00,40.7,27.9,29.96,NNW,338,12.1,16.3,60,0.00,,,0.00,WUHU216HW,2013-11-21 07:27:00,
2013-11-21 00:32:00,37.8,26.3,29.96,NNE,23,11.9,16.3,63,0.00,,,0.00,WUHU216HW,2013-11-21 07:32:00,
2013-11-21 00:37:00,36.2,26.3,29.96,NE,45,8.5,14.5,67,0.00,,,0.00,WUHU216HW,2013-11-21 07:37:00,
2013-11-21 00:42:00,35.1,25.6,29.96,North,0,6.0,11.4,68,0.00,,,0.00,WUHU216HW,2013-11-21 07:42:00,
2013-11-21 00:47:00,34.4,25.6,29.96,North,0,7.6,10.7,70,0.00,,,0.00,WUHU216HW,2013-11-21 07:47:00,
2013-11-21 00:52:00,33.8,24.7,29.96,NNE,23,15.2,15.2,69,0.00,,,0.00,WUHU216HW,2013-11-21 07:52:00,
2013-11-21 00:57:00,33.1,24.4,29.96,NNW,338,10.5,15.2,70,0.00,,,0.00,WUHU216HW,2013-11-21 07:57:00,
2013-11-21 01:02:00,32.6,24.6,29.97,North,0,9.4,12.5,72,0.00,,,0.00,WUHU216HW,2013-11-21 08:02:00,
2013-11-21 01:07:00,32.2,24.2,29.97,NNW,338,5.6,11.4,72,0.00,,,0.00,WUHU216HW,2013-11-21 08:07:00,
2013-11-21 01:12:00,32.0,24.0,29.97,North,0,11.4,12.1,72,0.00,,,0.00,WUHU216HW,2013-11-21 08:12:00,
2013-11-21 01:17:00,31.7,24.0,29.97,NNW,338,7.4,12.1,73,0.00,,,0.00,WUHU216HW,2013-11-21 08:17:00,
2013-11-21 01:22:00,31.3,23.9,29.97,NNE,23,13.9,13.9,74,0.00,,,0.00,WUHU216HW,2013-11-21 08:22:00,
2013-11-21 01:27:00,31.0,23.3,29.97,North,0,9.2,13.9,73,0.00,,,0.00,WUHU216HW,2013-11-21 08:27:00,
2013-11-21 01:32:00,30.8,23.4,29.97,North,0,14.1,14.1,74,0.00,,,0.00,WUHU216HW,2013-11-21 08:32:00,
2013-11-21 01:37:00,30.6,23.2,29.98,NNW,338,5.4,14.1,74,0.00,,,0.00,WUHU216HW,2013-11-21 08:37:00,
2013-11-21 01:42:00,30.2,23.2,29.98,North,0,6.3,8.5,75,0.00,,,0.00,WUHU216HW,2013-11-21 08:42:00,
2013-11-21 01:47:00,29.9,22.9,29.98,NNW,338,3.6,10.1,75,0.00,,,0.00,WUHU216HW,2013-11-21 08:47:00,
2013-11-21 01:52:00,29.9,22.9,29.98,North,0,9.4,10.1,75,0.00,,,0.00,WUHU216HW,2013-11-21 08:52:00,
2013-11-21 01:57:00,29.7,22.7,29.99,North,0,6.9,11.4,75,0.00,,,0.00,WUHU216HW,2013-11-21 08:57:00,
2013-11-21 02:02:00,29.5,22.5,29.99,NNW,338,4.9,11.4,75,0.00,,,0.00,WUHU216HW,2013-11-21 09:02:00,
2013-11-21 02:07:00,29.3,22.7,29.99,North,0,5.8,7.2,76,0.00,,,0.00,WUHU216HW,2013-11-21 09:07:00,
2013-11-21 02:12:00,29.2,22.2,29.99,ENE,68,5.1,7.2,75,0.00,,,0.00,WUHU216HW,2013-11-21 09:12:00,
2013-11-21 02:17:00,29.2,22.5,29.99,NE,45,6.5,10.1,76,0.00,,,0.00,WUHU216HW,2013-11-21 09:17:00,
2013-11-21 02:22:00,29.2,22.5,29.99,North,0,4.3,10.1,76,0.00,,,0.00,WUHU216HW,2013-11-21 09:22:00,
2013-11-21 02:27:00,29.2,22.2,29.99,NW,315,6.9,7.6,75,0.00,,,0.00,WUHU216HW,2013-11-21 09:27:00,
2013-11-21 02:32:00,29.2,22.2,29.99,North,0,3.4,7.4,75,0.00,,,0.00,WUHU216HW,2013-11-21 09:32:00,
2013-11-21 02:37:00,28.8,21.9,30.00,NNW,338,6.3,7.6,75,0.00,,,0.00,WUHU216HW,2013-11-21 09:37:00,
2013-11-21 02:42:00,28.6,21.7,29.99,NNW,338,6.5,9.6,75,0.00,,,0.00,WUHU216HW,2013-11-21 09:42:00,
2013-11-21 02:47:00,28.4,21.5,30.00,North,0,5.4,9.8,75,0.00,,,0.00,WUHU216HW,2013-11-21 09:47:00,
2013-11-21 02:52:00,28.3,21.3,30.00,North,0,5.4,9.8,75,0.00,,,0.00,WUHU216HW,2013-11-21 09:52:00,
2013-11-21 02:57:00,28.3,21.3,30.00,North,0,7.4,8.9,75,0.00,,,0.00,WUHU216HW,2013-11-21 09:57:00,
2013-11-21 03:02:00,28.1,21.2,30.00,NNE,23,4.9,7.4,75,0.00,,,0.00,WUHU216HW,2013-11-21 10:02:00,
2013-11-21 03:07:00,28.1,21.2,29.99,North,0,4.9,8.9,75,0.00,,,0.00,WUHU216HW,2013-11-21 10:07:00,
2013-11-21 03:12:00,28.1,21.2,29.99,North,0,4.7,9.8,75,0.00,,,0.00,WUHU216HW,2013-11-21 10:12:00,
2013-11-21 03:17:00,28.1,21.2,29.99,North,0,9.6,9.8,75,0.00,,,0.00,WUHU216HW,2013-11-21 10:17:00,
2013-11-21 03:22:00,27.9,21.2,29.99,NNW,338,9.8,9.8,76,0.00,,,0.00,WUHU216HW,2013-11-21 10:22:00,
2013-11-21 03:27:00,27.7,21.1,29.99,North,0,7.6,12.1,76,0.00,,,0.00,WUHU216HW,2013-11-21 10:27:00,
2013-11-21 03:32:00,27.7,20.8,30.00,North,0,7.8,12.1,75,0.00,,,0.00,WUHU216HW,2013-11-21 10:32:00,
2013-11-21 03:37:00,27.5,20.6,30.00,North,0,7.4,11.4,75,0.00,,,0.00,WUHU216HW,2013-11-21 10:37:00,
2013-11-21 03:42:00,27.4,20.2,30.00,NE,45,6.3,10.1,74,0.00,,,0.00,WUHU216HW,2013-11-21 10:42:00,
2013-11-21 03:47:00,27.0,19.4,30.00,NE,45,11.0,11.0,73,0.00,,,0.00,WUHU216HW,2013-11-21 10:47:00,
2013-11-21 03:52:00,26.8,19.3,30.00,North,0,7.2,11.2,73,0.00,,,0.00,WUHU216HW,2013-11-21 10:52:00,
2013-11-21 03:57:00,26.5,18.9,30.00,North,0,7.4,11.2,73,0.00,,,0.00,WUHU216HW,2013-11-21 10:57:00,
2013-11-21 04:02:00,26.3,18.7,30.01,NNE,23,7.2,8.9,73,0.00,,,0.00,WUHU216HW,2013-11-21 11:02:00,
2013-11-21 04:07:00,25.7,18.3,30.01,NE,45,9.8,9.8,73,0.00,,,0.00,WUHU216HW,2013-11-21 11:07:00,
2013-11-21 04:12:00,25.6,18.4,30.02,North,0,5.4,13.4,74,0.00,,,0.00,WUHU216HW,2013-11-21 11:12:00,
2013-11-21 04:17:00,25.4,18.6,30.01,NNW,338,8.1,13.4,75,0.00,,,0.00,WUHU216HW,2013-11-21 11:17:00,
2013-11-21 04:22:00,25.4,18.6,30.00,North,0,7.8,13.4,75,0.00,,,0.00,WUHU216HW,2013-11-21 11:22:00,
2013-11-21 04:27:00,25.2,18.4,30.01,North,0,6.0,13.4,75,0.00,,,0.00,WUHU216HW,2013-11-21 11:27:00,
2013-11-21 04:32:00,25.0,18.2,30.01,North,0,8.1,11.9,75,0.00,,,0.00,WUHU216HW,2013-11-21 11:32:00,
2013-11-21 04:37:00,25.0,18.2,30.01,NNE,23,16.3,16.3,75,0.00,,,0.00,WUHU216HW,2013-11-21 11:37:00,
2013-11-21 04:42:00,24.8,18.0,30.01,North,0,7.6,16.3,75,0.00,,,0.00,WUHU216HW,2013-11-21 11:42:00,
2013-11-21 04:47:00,24.7,17.8,30.01,North,0,8.7,15.7,75,0.00,,,0.00,WUHU216HW,2013-11-21 11:47:00,
2013-11-21 04:52:00,24.5,17.6,30.01,North,0,5.6,10.5,75,0.00,,,0.00,WUHU216HW,2013-11-21 11:52:00,
2013-11-21 04:57:00,24.7,17.8,30.01,NNE,23,9.8,10.5,75,0.00,,,0.00,WUHU216HW,2013-11-21 11:57:00,
2013-11-21 05:02:00,24.5,17.6,30.02,NNE,23,7.4,10.1,75,0.00,,,0.00,WUHU216HW,2013-11-21 12:02:00,
2013-11-21 05:07:00,24.3,17.5,30.01,NNE,23,9.8,14.3,75,0.00,,,0.00,WUHU216HW,2013-11-21 12:07:00,
2013-11-21 05:12:00,24.1,17.3,30.02,NNE,23,12.3,14.3,75,0.00,,,0.00,WUHU216HW,2013-11-21 12:12:00,
2013-11-21 05:17:00,24.1,17.3,30.02,North,0,9.8,12.3,75,0.00,,,0.00,WUHU216HW,2013-11-21 12:17:00,
2013-11-21 05:22:00,23.8,16.7,30.02,NNE,23,10.3,13.0,74,0.00,,,0.00,WUHU216HW,2013-11-21 12:22:00,
2013-11-21 05:27:00,23.6,16.5,30.02,North,0,8.3,13.0,74,0.00,,,0.00,WUHU216HW,2013-11-21 12:27:00,
2013-11-21 05:32:00,23.4,16.3,30.02,NE,45,3.4,12.8,74,0.00,,,0.00,WUHU216HW,2013-11-21 12:32:00,
2013-11-21 05:37:00,23.4,16.3,30.02,ENE,68,7.4,15.0,74,0.00,,,0.00,WUHU216HW,2013-11-21 12:37:00,
2013-11-21 05:42:00,23.4,16.3,30.03,North,0,6.3,15.0,74,0.00,,,0.00,WUHU216HW,2013-11-21 12:42:00,
2013-11-21 05:47:00,23.2,16.1,30.03,North,0,15.2,15.2,74,0.00,,,0.00,WUHU216HW,2013-11-21 12:47:00,
2013-11-21 05:52:00,23.0,16.0,30.03,NE,45,6.5,15.2,74,0.00,,,0.00,WUHU216HW,2013-11-21 12:52:00,
2013-11-21 05:57:00,22.9,15.9,30.03,NE,45,4.7,12.3,74,0.00,,,0.00,WUHU216HW,2013-11-21 12:57:00,
2013-11-21 06:02:00,22.7,15.9,30.03,North,0,8.5,12.3,75,0.00,,,0.00,WUHU216HW,2013-11-21 13:02:00,
2013-11-21 06:07:00,22.7,15.9,30.03,NE,45,7.4,11.9,75,0.00,,,0.00,WUHU216HW,2013-11-21 13:07:00,
2013-11-21 06:12:00,22.5,15.8,30.03,NW,315,7.6,11.4,75,0.00,,,0.00,WUHU216HW,2013-11-21 13:12:00,
2013-11-21 06:17:00,22.3,15.6,30.04,NNE,23,6.3,8.3,75,0.00,,,0.00,WUHU216HW,2013-11-21 13:17:00,
2013-11-21 06:22:00,22.1,15.4,30.04,North,0,4.5,10.3,75,0.00,,,0.00,WUHU216HW,2013-11-21 13:22:00,
2013-11-21 06:27:00,22.1,15.1,30.04,North,0,7.6,10.3,74,0.00,,,0.00,WUHU216HW,2013-11-21 13:27:00,
2013-11-21 06:32:00,22.1,15.1,30.04,NE,45,11.2,11.2,74,0.00,,,0.00,WUHU216HW,2013-11-21 13:32:00,
2013-11-21 06:37:00,22.1,15.1,30.04,NNW,338,8.5,11.2,74,0.00,,,0.00,WUHU216HW,2013-11-21 13:37:00,
2013-11-21 06:42:00,22.1,14.8,30.05,NNE,23,7.2,10.3,73,0.00,,,0.00,WUHU216HW,2013-11-21 13:42:00,
2013-11-21 06:47:00,22.0,14.6,30.04,NNE,23,8.1,13.4,73,0.00,,,0.00,WUHU216HW,2013-11-21 13:47:00,
2013-11-21 06:52:00,22.0,14.6,30.04,NNE,23,6.3,13.4,73,0.00,,,0.00,WUHU216HW,2013-11-21 13:52:00,
2013-11-21 06:57:00,21.6,14.2,30.05,NNE,23,4.5,13.4,73,0.00,,,0.00,WUHU216HW,2013-11-21 13:57:00,
2013-11-21 07:02:00,21.4,14.0,30.05,NNW,338,9.6,12.1,73,0.00,,,0.00,WUHU216HW,2013-11-21 14:02:00,
2013-11-21 07:07:00,21.2,13.9,30.06,NNE,23,5.8,12.1,73,0.00,,,0.00,WUHU216HW,2013-11-21 14:07:00,
2013-11-21 07:12:00,21.1,13.7,30.05,NNE,23,5.4,9.4,73,0.00,,,0.00,WUHU216HW,2013-11-21 14:12:00,
2013-11-21 07:16:00,21.1,14.1,30.05,ESE,113,6.3,9.4,74,0.00,,,0.00,WUHU216HW,2013-11-21 14:16:00,
2013-11-21 07:21:00,21.1,14.1,30.05,North,0,6.3,8.7,74,0.00,,,0.00,WUHU216HW,2013-11-21 14:21:00,
2013-11-21 07:26:00,20.7,13.7,30.06,North,0,6.7,9.8,74,0.00,,,0.00,WUHU216HW,2013-11-21 14:26:00,
2013-11-21 07:31:00,20.7,14.0,30.06,NNE,23,8.7,9.8,75,0.00,,,0.00,WUHU216HW,2013-11-21 14:31:00,
2013-11-21 07:36:00,20.7,13.7,30.06,North,0,6.5,9.4,74,0.00,,,0.00,WUHU216HW,2013-11-21 14:36:00,
2013-11-21 07:41:00,20.5,13.5,30.06,NNW,338,3.4,11.0,74,0.00,,,0.00,WUHU216HW,2013-11-21 14:41:00,
2013-11-21 07:46:00,20.5,13.5,30.07,NNE,23,5.1,11.0,74,0.00,,,0.00,WUHU216HW,2013-11-21 14:46:00,
2013-11-21 07:51:00,20.5,13.5,30.07,NNE,23,10.1,10.1,74,0.00,,,0.00,WUHU216HW,2013-11-21 14:51:00,
2013-11-21 07:56:00,20.5,13.5,30.07,NE,45,6.7,10.7,74,0.00,,,0.00,WUHU216HW,2013-11-21 14:56:00,
2013-11-21 08:01:00,20.5,13.5,30.07,NNE,23,8.9,10.7,74,0.00,,,0.00,WUHU216HW,2013-11-21 15:01:00,
2013-11-21 08:06:00,20.3,13.3,30.07,NNW,338,5.1,10.5,74,0.00,,,0.00,WUHU216HW,2013-11-21 15:06:00,
2013-11-21 08:11:00,20.3,13.3,30.08,North,0,8.7,13.6,74,0.00,,,0.00,WUHU216HW,2013-11-21 15:11:00,
2013-11-21 08:16:00,20.3,13.3,30.08,NE,45,5.4,13.6,74,0.00,,,0.00,WUHU216HW,2013-11-21 15:16:00,
2013-11-21 08:22:00,20.3,13.3,30.08,NNE,23,8.3,10.5,74,0.00,,,0.00,WUHU216HW,2013-11-21 15:22:00,
2013-11-21 08:26:00,20.2,13.2,30.08,NNE,23,7.2,10.5,74,0.00,,,0.00,WUHU216HW,2013-11-21 15:26:00,
2013-11-21 08:31:00,20.2,13.2,30.08,NNE,23,6.9,9.8,74,0.00,,,0.00,WUHU216HW,2013-11-21 15:31:00,
2013-11-21 08:36:00,20.2,13.2,30.09,NNW,338,6.9,9.8,74,0.00,,,0.00,WUHU216HW,2013-11-21 15:36:00,
2013-11-21 08:41:00,20.0,13.0,30.09,North,0,7.8,8.5,74,0.00,,,0.00,WUHU216HW,2013-11-21 15:41:00,
2013-11-21 08:46:00,19.8,12.8,30.09,North,0,4.9,8.5,74,0.00,,,0.00,WUHU216HW,2013-11-21 15:46:00,
2013-11-21 08:51:00,19.8,12.4,30.09,NNE,23,10.5,10.5,73,0.00,,,0.00,WUHU216HW,2013-11-21 15:51:00,
2013-11-21 08:56:00,19.8,12.4,30.09,North,0,12.8,12.8,73,0.00,,,0.00,WUHU216HW,2013-11-21 15:56:00,
2013-11-21 09:01:00,19.8,12.4,30.09,North,0,5.8,12.8,73,0.00,,,0.00,WUHU216HW,2013-11-21 16:01:00,
2013-11-21 09:06:00,19.8,12.2,30.10,NE,45,5.8,8.5,72,0.00,,,0.00,WUHU216HW,2013-11-21 16:06:00,
2013-11-21 09:11:00,19.8,12.4,30.10,NE,45,4.3,7.8,73,0.00,,,0.00,WUHU216HW,2013-11-21 16:11:00,
2013-11-21 09:16:00,19.8,12.4,30.10,NNE,23,3.4,7.8,73,0.00,,,0.00,WUHU216HW,2013-11-21 16:16:00,
2013-11-21 09:21:00,19.8,12.2,30.11,ENE,68,4.9,7.8,72,0.00,,,0.00,WUHU216HW,2013-11-21 16:21:00,
2013-11-21 09:26:00,19.8,12.2,30.11,North,0,4.3,8.3,72,0.00,,,0.00,WUHU216HW,2013-11-21 16:26:00,
2013-11-21 09:31:00,20.0,12.3,30.11,NNE,23,6.0,10.5,72,0.00,,,0.00,WUHU216HW,2013-11-21 16:31:00,
2013-11-21 09:36:00,19.8,11.8,30.11,NNE,23,6.9,10.5,71,0.00,,,0.00,WUHU216HW,2013-11-21 16:36:00,
2013-11-21 09:41:00,19.8,11.8,30.11,North,0,8.7,10.5,71,0.00,,,0.00,WUHU216HW,2013-11-21 16:41:00,
2013-11-21 09:46:00,19.6,11.6,30.11,NNE,23,5.1,10.5,71,0.00,,,0.00,WUHU216HW,2013-11-21 16:46:00,
2013-11-21 09:51:00,19.8,11.8,30.11,ENE,68,8.3,11.4,71,0.00,,,0.00,WUHU216HW,2013-11-21 16:51:00,
2013-11-21 09:56:00,19.8,11.8,30.11,ENE,68,6.3,12.8,71,0.00,,,0.00,WUHU216HW,2013-11-21 16:56:00,
2013-11-21 10:01:00,19.8,11.8,30.11,North,0,6.9,12.8,71,0.00,,,0.00,WUHU216HW,2013-11-21 17:01:00,
2013-11-21 10:06:00,19.8,11.5,30.11,North,0,4.5,9.2,70,0.00,,,0.00,WUHU216HW,2013-11-21 17:06:00,
2013-11-21 10:11:00,19.8,11.5,30.12,North,0,9.8,12.1,70,0.00,,,0.00,WUHU216HW,2013-11-21 17:11:00,
2013-11-21 10:16:00,19.8,11.5,30.12,NNE,23,8.5,12.1,70,0.00,,,0.00,WUHU216HW,2013-11-21 17:16:00,
2013-11-21 10:21:00,19.8,11.5,30.12,NE,45,6.7,11.4,70,0.00,,,0.00,WUHU216HW,2013-11-21 17:21:00,
2013-11-21 10:26:00,19.6,11.3,30.12,North,0,6.9,11.2,70,0.00,,,0.00,WUHU216HW,2013-11-21 17:26:00,
2013-11-21 10:31:00,19.8,11.8,30.12,NNE,23,4.0,8.3,71,0.00,,,0.00,WUHU216HW,2013-11-21 17:31:00,
2013-11-21 10:36:00,19.8,11.8,30.12,North,0,13.0,13.0,71,0.00,,,0.00,WUHU216HW,2013-11-21 17:36:00,
2013-11-21 10:41:00,19.8,11.8,30.12,NNE,23,4.3,13.0,71,0.00,,,0.00,WUHU216HW,2013-11-21 17:41:00,
2013-11-21 10:46:00,19.8,11.8,30.12,NE,45,7.8,10.3,71,0.00,,,0.00,WUHU216HW,2013-11-21 17:46:00,
2013-11-21 10:51:00,19.8,11.8,30.12,North,0,6.3,9.2,71,0.00,,,0.00,WUHU216HW,2013-11-21 17:51:00,
2013-11-21 10:56:00,19.8,11.8,30.12,NNW,338,9.2,12.1,71,0.00,,,0.00,WUHU216HW,2013-11-21 17:56:00,
2013-11-21 11:01:00,19.8,12.2,30.12,NNE,23,5.4,12.1,72,0.00,,,0.00,WUHU216HW,2013-11-21 18:01:00,
2013-11-21 11:06:00,19.8,11.8,30.12,NNW,338,7.6,8.7,71,0.00,,,0.00,WUHU216HW,2013-11-21 18:06:00,
2013-11-21 11:11:00,19.8,11.8,30.12,North,0,6.5,8.5,71,0.00,,,0.00,WUHU216HW,2013-11-21 18:11:00,
2013-11-21 11:16:00,19.8,11.8,30.12,NNE,23,5.4,8.5,71,0.00,,,0.00,WUHU216HW,2013-11-21 18:16:00,
2013-11-21 11:21:00,19.8,11.8,30.12,NNW,338,9.4,9.4,71,0.00,,,0.00,WUHU216HW,2013-11-21 18:21:00,
2013-11-21 11:26:00,19.8,11.8,30.12,NNE,23,11.0,11.0,71,0.00,,,0.00,WUHU216HW,2013-11-21 18:26:00,
2013-11-21 11:31:00,19.8,11.8,30.12,North,0,6.9,11.0,71,0.00,,,0.00,WUHU216HW,2013-11-21 18:31:00,
2013-11-21 11:36:00,19.6,11.6,30.12,North,0,4.0,12.5,71,0.00,,,0.00,WUHU216HW,2013-11-21 18:36:00,
2013-11-21 11:41:00,19.6,11.6,30.12,North,0,9.8,12.5,71,0.00,,,0.00,WUHU216HW,2013-11-21 18:41:00,
2013-11-21 11:47:00,19.6,11.3,30.12,NE,45,5.6,14.1,70,0.00,,,0.00,WUHU216HW,2013-11-21 18:47:00,
2013-11-21 11:51:00,19.6,11.6,30.12,North,0,7.6,14.1,71,0.00,,,0.00,WUHU216HW,2013-11-21 18:51:00,
2013-11-21 11:57:00,19.8,11.5,30.12,North,0,11.4,11.4,70,0.00,,,0.00,WUHU216HW,2013-11-21 18:57:00,
2013-11-21 12:01:00,19.6,11.3,30.12,North,0,6.9,11.4,70,0.00,,,0.00,WUHU216HW,2013-11-21 19:01:00,
2013-11-21 12:07:00,19.4,11.2,30.12,NE,45,9.6,11.9,70,0.00,,,0.00,WUHU216HW,2013-11-21 19:07:00,
2013-11-21 12:12:00,19.4,11.2,30.12,NNE,23,3.6,11.9,70,0.00,,,0.00,WUHU216HW,2013-11-21 19:12:00,
2013-11-21 12:16:00,19.4,11.2,30.12,NNE,23,4.5,8.5,70,0.00,,,0.00,WUHU216HW,2013-11-21 19:16:00,
2013-11-21 12:21:00,19.4,11.2,30.12,North,0,8.3,8.3,70,0.00,,,0.00,WUHU216HW,2013-11-21 19:21:00,
2013-11-21 12:26:00,19.3,10.6,30.12,North,0,8.7,8.7,69,0.00,,,0.00,WUHU216HW,2013-11-21 19:26:00,
2013-11-21 12:32:00,19.3,10.6,30.12,North,0,10.1,10.1,69,0.00,,,0.00,WUHU216HW,2013-11-21 19:32:00,
2013-11-21 12:37:00,19.1,10.5,30.12,North,0,5.8,10.1,69,0.00,,,0.00,WUHU216HW,2013-11-21 19:37:00,
2013-11-21 12:42:00,18.9,10.4,30.12,NNE,23,10.5,10.5,69,0.00,,,0.00,WUHU216HW,2013-11-21 19:42:00,
2013-11-21 12:47:00,18.9,10.7,30.12,North,0,4.0,10.5,70,0.00,,,0.00,WUHU216HW,2013-11-21 19:47:00,
2013-11-21 12:52:00,18.9,11.0,30.12,North,0,7.2,10.5,71,0.00,,,0.00,WUHU216HW,2013-11-21 19:52:00,
2013-11-21 12:57:00,31.3,28.4,30.12,ENE,68,10.5,13.0,89,0.00,,,0.00,WUHU216HW,2013-11-21 19:57:00,
2013-11-21 13:02:00,23.7,18.5,30.12,NNE,23,5.4,13.0,80,0.00,,,0.00,WUHU216HW,2013-11-21 20:02:00,
2013-11-21 13:07:00,29.9,19.8,30.13,NNE,23,7.8,12.1,66,0.00,,,0.00,WUHU216HW,2013-11-21 20:07:00,
2013-11-21 13:12:00,24.8,14.0,30.13,NNW,338,12.1,13.6,63,0.00,,,0.00,WUHU216HW,2013-11-21 20:12:00,
2013-11-21 13:16:00,22.3,11.6,30.13,North,0,11.6,14.3,63,0.00,,,0.00,WUHU216HW,2013-11-21 20:16:00,
2013-11-21 13:21:00,20.5,10.5,30.13,NNE,23,8.7,14.3,65,0.00,,,0.00,WUHU216HW,2013-11-21 20:21:00,
2013-11-21 13:26:00,19.8,9.8,30.12,NNE,23,12.8,13.4,65,0.00,,,0.00,WUHU216HW,2013-11-21 20:26:00,
2013-11-21 13:31:00,19.1,9.5,30.12,NE,45,10.7,12.8,66,0.00,,,0.00,WUHU216HW,2013-11-21 20:31:00,
2013-11-21 13:36:00,18.7,9.5,30.12,North,0,9.2,11.4,67,0.00,,,0.00,WUHU216HW,2013-11-21 20:36:00,
2013-11-21 13:41:00,18.5,9.6,30.12,North,0,5.1,11.4,68,0.00,,,0.00,WUHU216HW,2013-11-21 20:41:00,
2013-11-21 13:46:00,18.4,9.8,30.12,North,0,9.4,10.1,69,0.00,,,0.00,WUHU216HW,2013-11-21 20:46:00,
2013-11-21 13:51:00,18.2,9.7,30.12,NNE,23,12.5,12.5,69,0.00,,,0.00,WUHU216HW,2013-11-21 20:51:00,
2013-11-21 13:56:00,18.0,9.6,30.13,North,0,6.3,12.5,69,0.00,,,0.00,WUHU216HW,2013-11-21 20:56:00,
2013-11-21 14:01:00,18.2,9.7,30.13,North,0,3.6,10.3,69,0.00,,,0.00,WUHU216HW,2013-11-21 21:01:00,
2013-11-21 14:06:00,18.2,9.7,30.13,North,0,8.3,10.3,69,0.00,,,0.00,WUHU216HW,2013-11-21 21:06:00,
2013-11-21 14:11:00,18.0,9.6,30.13,North,0,10.1,10.1,69,0.00,,,0.00,WUHU216HW,2013-11-21 21:11:00,
2013-11-21 14:16:00,17.6,9.2,30.13,North,0,7.6,10.7,69,0.00,,,0.00,WUHU216HW,2013-11-21 21:16:00,
2013-11-21 14:21:00,17.6,9.5,30.13,NNW,338,7.6,10.7,70,0.00,,,0.00,WUHU216HW,2013-11-21 21:21:00,
2013-11-21 14:26:00,17.6,9.2,30.13,NE,45,8.7,11.9,69,0.00,,,0.00,WUHU216HW,2013-11-21 21:26:00,
2013-11-21 14:31:00,17.5,9.0,30.13,North,0,8.9,13.4,69,0.00,,,0.00,WUHU216HW,2013-11-21 21:31:00,
2013-11-21 14:36:00,17.3,8.8,30.14,East,90,10.5,13.4,69,0.00,,,0.00,WUHU216HW,2013-11-21 21:36:00,
2013-11-21 14:41:00,17.3,9.2,30.14,NNE,23,13.9,13.9,70,0.00,,,0.00,WUHU216HW,2013-11-21 21:41:00,
2013-11-21 14:46:00,17.3,9.2,30.14,NNE,23,14.3,14.3,70,0.00,,,0.00,WUHU216HW,2013-11-21 21:46:00,
2013-11-21 14:51:00,17.3,9.5,30.15,North,0,7.6,14.3,71,0.00,,,0.00,WUHU216HW,2013-11-21 21:51:00,
2013-11-21 14:56:00,17.1,9.3,30.15,NNE,23,8.9,12.1,71,0.00,,,0.00,WUHU216HW,2013-11-21 21:56:00,
2013-11-21 15:01:00,16.9,9.1,30.15,North,0,6.9,12.1,71,0.00,,,0.00,WUHU216HW,2013-11-21 22:01:00,
2013-11-21 15:06:00,16.9,9.1,30.16,North,0,5.8,9.2,71,0.00,,,0.00,WUHU216HW,2013-11-21 22:06:00,
2013-11-21 15:11:00,16.9,9.1,30.16,North,0,9.2,9.2,71,0.00,,,0.00,WUHU216HW,2013-11-21 22:11:00,
2013-11-21 15:16:00,16.9,9.1,30.17,North,0,5.8,12.5,71,0.00,,,0.00,WUHU216HW,2013-11-21 22:16:00,
2013-11-21 15:21:00,16.9,9.1,30.17,NNE,23,6.7,12.5,71,0.00,,,0.00,WUHU216HW,2013-11-21 22:21:00,
2013-11-21 15:26:00,16.7,8.9,30.18,North,0,11.4,11.9,71,0.00,,,0.00,WUHU216HW,2013-11-21 22:26:00,
2013-11-21 15:31:00,16.6,8.7,30.18,NNE,23,4.0,11.9,71,0.00,,,0.00,WUHU216HW,2013-11-21 22:31:00,
2013-11-21 15:36:00,16.6,8.7,30.18,NE,45,5.4,10.5,71,0.00,,,0.00,WUHU216HW,2013-11-21 22:36:00,
2013-11-21 15:41:00,16.6,8.7,30.18,North,0,7.6,9.6,71,0.00,,,0.00,WUHU216HW,2013-11-21 22:41:00,
2013-11-21 15:46:00,16.2,8.4,30.18,NNW,338,6.3,14.1,71,0.00,,,0.00,WUHU216HW,2013-11-21 22:46:00,
2013-11-21 15:51:00,16.2,8.4,30.19,NNW,338,9.4,14.1,71,0.00,,,0.00,WUHU216HW,2013-11-21 22:51:00,
2013-11-21 15:56:00,16.0,8.2,30.19,NNE,23,8.3,11.4,71,0.00,,,0.00,WUHU216HW,2013-11-21 22:56:00,
2013-11-21 16:01:00,15.7,8.2,30.19,NNW,338,6.7,13.4,72,0.00,,,0.00,WUHU216HW,2013-11-21 23:01:00,
2013-11-21 16:06:00,15.5,8.0,30.19,North,0,7.6,13.4,72,0.00,,,0.00,WUHU216HW,2013-11-21 23:06:00,
2013-11-21 16:11:00,15.5,8.3,30.19,NE,45,8.7,12.5,73,0.00,,,0.00,WUHU216HW,2013-11-21 23:11:00,
2013-11-21 16:16:00,15.5,8.3,30.20,NE,45,5.4,12.5,73,0.00,,,0.00,WUHU216HW,2013-11-21 23:16:00,
2013-11-21 16:21:00,15.3,8.2,30.20,NNE,23,5.1,12.5,73,0.00,,,0.00,WUHU216HW,2013-11-21 23:21:00,
2013-11-21 16:26:00,15.3,8.2,30.20,North,0,8.3,12.1,73,0.00,,,0.00,WUHU216HW,2013-11-21 23:26:00,
2013-11-21 16:31:00,15.1,8.3,30.20,WNW,293,9.8,9.8,74,0.00,,,0.00,WUHU216HW,2013-11-21 23:31:00,
2013-11-21 16:36:00,14.8,7.9,30.20,North,0,5.8,9.8,74,0.00,,,0.00,WUHU216HW,2013-11-21 23:36:00,
2013-11-21 16:41:00,14.6,8.1,30.21,NNW,338,8.9,11.0,75,0.00,,,0.00,WUHU216HW,2013-11-21 23:41:00,
2013-11-21 16:46:00,14.4,7.9,30.21,North,0,5.6,11.0,75,0.00,,,0.00,WUHU216HW,2013-11-21 23:46:00,
2013-11-21 16:51:00,14.4,7.9,30.21,East,90,15.0,15.0,75,0.00,,,0.00,WUHU216HW,2013-11-21 23:51:00,
2013-11-21 16:56:00,14.2,7.5,30.21,NNE,23,8.9,15.0,74,0.00,,,0.00,WUHU216HW,2013-11-21 23:56:00,
2013-11-21 17:01:00,14.2,7.5,30.22,North,0,7.2,13.2,74,0.00,,,0.00,WUHU216HW,2013-11-22 00:01:00,
2013-11-21 17:06:00,14.4,7.7,30.22,North,0,7.2,10.5,74,0.00,,,0.00,WUHU216HW,2013-11-22 00:06:00,
2013-11-21 17:11:00,14.4,7.7,30.22,North,0,9.8,15.7,74,0.00,,,0.00,WUHU216HW,2013-11-22 00:11:00,
2013-11-21 17:16:00,14.2,7.1,30.22,North,0,9.6,15.7,73,0.00,,,0.00,WUHU216HW,2013-11-22 00:16:00,
2013-11-21 17:21:00,14.0,7.0,30.23,North,0,11.6,11.6,73,0.00,,,0.00,WUHU216HW,2013-11-22 00:21:00,
2013-11-21 17:26:00,14.0,7.0,30.23,NNE,23,6.3,11.6,73,0.00,,,0.00,WUHU216HW,2013-11-22 00:26:00,
2013-11-21 17:31:00,14.0,7.3,30.24,North,0,7.6,8.9,74,0.00,,,0.00,WUHU216HW,2013-11-22 00:31:00,
2013-11-21 17:36:00,14.0,7.3,30.24,NNW,338,9.2,11.4,74,0.00,,,0.00,WUHU216HW,2013-11-22 00:36:00,
2013-11-21 17:41:00,15.1,8.9,30.24,North,0,6.3,11.4,76,0.00,,,0.00,WUHU216HW,2013-11-22 00:41:00,
2013-11-21 17:46:00,14.6,7.7,30.25,North,0,5.8,11.9,74,0.00,,,0.00,WUHU216HW,2013-11-22 00:46:00,
2013-11-21 17:51:00,13.9,6.9,30.25,NW,315,9.6,15.0,73,0.00,,,0.00,WUHU216HW,2013-11-22 00:51:00,
2013-11-21 17:56:00,13.5,6.5,30.25,ENE,68,6.0,15.0,73,0.00,,,0.00,WUHU216HW,2013-11-22 00:56:00,
2013-11-21 18:01:00,13.3,6.6,30.26,NNE,23,11.6,12.3,74,0.00,,,0.00,WUHU216HW,2013-11-22 01:01:00,
2013-11-21 18:06:00,13.1,6.4,30.26,NNW,338,10.5,13.6,74,0.00,,,0.00,WUHU216HW,2013-11-22 01:06:00,
2013-11-21 18:11:00,13.1,6.4,30.26,North,0,8.3,13.9,74,0.00,,,0.00,WUHU216HW,2013-11-22 01:11:00,
2013-11-21 18:16:00,13.0,6.2,30.26,NNE,23,7.8,13.9,74,0.00,,,0.00,WUHU216HW,2013-11-22 01:16:00,
2013-11-21 18:21:00,13.0,6.2,30.27,North,0,7.8,13.0,74,0.00,,,0.00,WUHU216HW,2013-11-22 01:21:00,
2013-11-21 18:26:00,12.8,6.3,30.27,NNE,23,7.2,12.3,75,0.00,,,0.00,WUHU216HW,2013-11-22 01:26:00,
2013-11-21 18:31:00,12.6,5.9,30.27,NNE,23,16.6,16.6,74,0.00,,,0.00,WUHU216HW,2013-11-22 01:31:00,
2013-11-21 18:36:00,12.6,6.1,30.27,ENE,68,13.2,16.6,75,0.00,,,0.00,WUHU216HW,2013-11-22 01:36:00,
2013-11-21 18:41:00,12.6,6.1,30.27,NNE,23,9.8,13.2,75,0.00,,,0.00,WUHU216HW,2013-11-22 01:41:00,
2013-11-21 18:46:00,12.4,5.9,30.28,NNE,23,5.6,11.9,75,0.00,,,0.00,WUHU216HW,2013-11-22 01:46:00,
2013-11-21 18:51:00,12.4,5.9,30.28,NNW,338,5.4,9.8,75,0.00,,,0.00,WUHU216HW,2013-11-22 01:51:00,
2013-11-21 18:56:00,12.4,6.2,30.29,North,0,10.7,10.7,76,0.00,,,0.00,WUHU216HW,2013-11-22 01:56:00,
2013-11-21 19:01:00,12.4,6.2,30.29,NW,315,5.8,10.7,76,0.00,,,0.00,WUHU216HW,2013-11-22 02:01:00,
2013-11-21 19:06:00,12.4,6.5,30.28,North,0,11.9,20.6,77,0.00,,,0.00,WUHU216HW,2013-11-22 02:06:00,
2013-11-21 19:08:00,12.4,6.5,30.28,North,0,10.3,20.6,77,0.00,,,0.00,WUHU216HW,2013-11-22 02:08:00,
2013-11-21 19:09:00,12.2,6.3,30.28,NNW,338,10.5,20.6,77,0.00,,,0.00,WUHU216HW,2013-11-22 02:09:00,
2013-11-21 19:14:00,12.2,6.3,30.28,North,0,5.8,12.8,77,0.00,,,0.00,WUHU216HW,2013-11-22 02:14:00,
2013-11-21 19:19:00,12.2,6.3,30.29,North,0,5.4,7.6,77,0.00,,,0.00,WUHU216HW,2013-11-22 02:19:00,
2013-11-21 19:24:00,12.2,6.3,30.29,NNW,338,5.8,7.6,77,0.00,,,0.00,WUHU216HW,2013-11-22 02:24:00,
2013-11-21 19:29:00,12.2,6.3,30.29,North,0,5.4,10.5,77,0.00,,,0.00,WUHU216HW,2013-11-22 02:29:00,
2013-11-21 19:34:00,12.2,6.7,30.29,NNW,338,5.4,10.5,78,0.00,,,0.00,WUHU216HW,2013-11-22 02:34:00,
2013-11-21 19:39:00,12.2,6.7,30.29,NE,45,8.7,9.2,78,0.00,,,0.00,WUHU216HW,2013-11-22 02:39:00,
2013-11-21 19:44:00,12.2,6.9,30.30,NNW,338,10.5,10.5,79,0.00,,,0.00,WUHU216HW,2013-11-22 02:44:00,
2013-11-21 19:49:00,12.2,6.7,30.30,NNW,338,6.0,10.5,78,0.00,,,0.00,WUHU216HW,2013-11-22 02:49:00,
2013-11-21 19:54:00,12.2,6.9,30.30,North,0,10.1,10.1,79,0.00,,,0.00,WUHU216HW,2013-11-22 02:54:00,
2013-11-21 19:59:00,12.2,6.9,30.30,NNW,338,7.6,12.8,79,0.00,,,0.00,WUHU216HW,2013-11-22 02:59:00,
2013-11-21 20:04:00,12.4,6.9,30.30,ENE,68,6.9,12.8,78,0.00,,,0.00,WUHU216HW,2013-11-22 03:04:00,
2013-11-21 20:09:00,12.6,7.0,30.30,NNE,23,6.7,10.1,78,0.00,,,0.00,WUHU216HW,2013-11-22 03:09:00,
2013-11-21 20:14:00,12.6,7.0,30.30,NE,45,5.6,9.8,78,0.00,,,0.00,WUHU216HW,2013-11-22 03:14:00,
2013-11-21 20:19:00,12.6,6.7,30.30,North,0,6.7,10.7,77,0.00,,,0.00,WUHU216HW,2013-11-22 03:19:00,
2013-11-21 20:24:00,12.6,6.7,30.30,NNE,23,6.5,10.7,77,0.00,,,0.00,WUHU216HW,2013-11-22 03:24:00,
2013-11-21 20:29:00,12.6,6.7,30.30,NW,315,8.3,12.3,77,0.00,,,0.00,WUHU216HW,2013-11-22 03:29:00,
2013-11-21 20:34:00,12.6,6.7,30.30,North,0,9.2,12.3,77,0.00,,,0.00,WUHU216HW,2013-11-22 03:34:00,
2013-11-21 20:39:00,12.6,6.7,30.30,North,0,6.5,16.3,77,0.00,,,0.00,WUHU216HW,2013-11-22 03:39:00,
2013-11-21 20:44:00,12.6,6.7,30.31,NE,45,8.5,16.3,77,0.00,,,0.00,WUHU216HW,2013-11-22 03:44:00,
2013-11-21 20:49:00,12.6,6.7,30.32,North,0,7.6,8.5,77,0.00,,,0.00,WUHU216HW,2013-11-22 03:49:00,
2013-11-21 20:54:00,12.8,6.8,30.32,NNW,338,9.4,9.4,77,0.00,,,0.00,WUHU216HW,2013-11-22 03:54:00,
2013-11-21 20:59:00,12.6,6.7,30.32,North,0,9.4,12.8,77,0.00,,,0.00,WUHU216HW,2013-11-22 03:59:00,
2013-11-21 21:04:00,12.6,6.7,30.32,NNW,338,8.5,14.3,77,0.00,,,0.00,WUHU216HW,2013-11-22 04:04:00,
2013-11-21 21:09:00,12.8,6.8,30.32,North,0,9.8,14.3,77,0.00,,,0.00,WUHU216HW,2013-11-22 04:09:00,
2013-11-21 21:14:00,12.8,6.8,30.32,NNE,23,6.3,14.1,77,0.00,,,0.00,WUHU216HW,2013-11-22 04:14:00,
2013-11-21 21:19:00,13.0,7.0,30.32,NNE,23,13.9,13.9,77,0.00,,,0.00,WUHU216HW,2013-11-22 04:19:00,
2013-11-21 21:24:00,13.0,6.8,30.32,North,0,4.0,14.3,76,0.00,,,0.00,WUHU216HW,2013-11-22 04:24:00,
2013-11-21 21:29:00,13.1,6.9,30.32,NNE,23,9.4,14.3,76,0.00,,,0.00,WUHU216HW,2013-11-22 04:29:00,
2013-11-21 21:34:00,13.1,6.9,30.32,NNE,23,9.8,9.8,76,0.00,,,0.00,WUHU216HW,2013-11-22 04:34:00,
2013-11-21 21:39:00,13.3,7.1,30.32,North,0,4.7,12.1,76,0.00,,,0.00,WUHU216HW,2013-11-22 04:39:00,
2013-11-21 21:44:00,13.3,7.1,30.32,NNW,338,7.2,12.1,76,0.00,,,0.00,WUHU216HW,2013-11-22 04:44:00,
2013-11-21 21:49:00,13.5,7.3,30.33,North,0,4.3,10.7,76,0.00,,,0.00,WUHU216HW,2013-11-22 04:49:00,
2013-11-21 21:54:00,13.5,7.3,30.33,NNE,23,9.8,11.6,76,0.00,,,0.00,WUHU216HW,2013-11-22 04:54:00,
2013-11-21 21:59:00,13.5,7.3,30.33,ENE,68,11.9,11.9,76,0.00,,,0.00,WUHU216HW,2013-11-22 04:59:00,
2013-11-21 22:01:00,13.7,7.2,30.32,North,0,7.6,11.9,75,0.00,,,0.00,WUHU216HW,2013-11-22 05:01:00,
2013-11-21 22:02:00,13.7,7.2,30.32,NNW,338,7.2,11.9,75,0.00,,,0.00,WUHU216HW,2013-11-22 05:02:00,
2013-11-21 22:07:00,13.7,7.2,30.32,North,0,8.7,11.9,75,0.00,,,0.00,WUHU216HW,2013-11-22 05:07:00,
2013-11-21 22:12:00,13.7,7.2,30.32,North,0,6.9,9.2,75,0.00,,,0.00,WUHU216HW,2013-11-22 05:12:00,
2013-11-21 22:17:00,13.9,7.4,30.31,NNW,338,6.9,9.2,75,0.00,,,0.00,WUHU216HW,2013-11-22 05:17:00,
2013-11-21 22:22:00,14.0,7.6,30.31,North,0,5.6,8.3,75,0.00,,,0.00,WUHU216HW,2013-11-22 05:22:00,
2013-11-21 22:27:00,14.0,7.6,30.31,NNW,338,8.9,10.7,75,0.00,,,0.00,WUHU216HW,2013-11-22 05:27:00,
2013-11-21 22:32:00,14.0,7.6,30.32,NNW,338,6.5,10.7,75,0.00,,,0.00,WUHU216HW,2013-11-22 05:32:00,
2013-11-21 22:37:00,14.4,7.9,30.33,North,0,4.0,6.5,75,0.00,,,0.00,WUHU216HW,2013-11-22 05:37:00,
2013-11-21 22:42:00,14.4,7.9,30.33,NW,315,4.5,8.7,75,0.00,,,0.00,WUHU216HW,2013-11-22 05:42:00,
2013-11-21 22:47:00,14.6,8.1,30.32,NNW,338,2.0,8.7,75,0.00,,,0.00,WUHU216HW,2013-11-22 05:47:00,
2013-11-21 22:52:00,14.6,8.1,30.32,North,0,6.3,6.5,75,0.00,,,0.00,WUHU216HW,2013-11-22 05:52:00,
2013-11-21 22:57:00,14.6,8.1,30.32,NNW,338,7.4,10.5,75,0.00,,,0.00,WUHU216HW,2013-11-22 05:57:00,
2013-11-21 23:02:00,14.6,8.1,30.33,NNW,338,3.8,10.5,75,0.00,,,0.00,WUHU216HW,2013-11-22 06:02:00,
2013-11-21 23:07:00,14.8,8.3,30.33,North,0,5.4,7.8,75,0.00,,,0.00,WUHU216HW,2013-11-22 06:07:00,
2013-11-21 23:12:00,14.8,8.3,30.33,NNE,23,4.5,8.1,75,0.00,,,0.00,WUHU216HW,2013-11-22 06:12:00,
2013-11-21 23:17:00,14.9,8.4,30.34,North,0,3.6,8.1,75,0.00,,,0.00,WUHU216HW,2013-11-22 06:17:00,
2013-11-21 23:22:00,15.1,8.3,30.34,NNW,338,2.0,5.8,74,0.00,,,0.00,WUHU216HW,2013-11-22 06:22:00,
2013-11-21 23:27:00,15.3,8.5,30.34,NNW,338,6.5,6.5,74,0.00,,,0.00,WUHU216HW,2013-11-22 06:27:00,
2013-11-21 23:32:00,15.5,8.7,30.35,NNE,23,2.5,6.5,74,0.00,,,0.00,WUHU216HW,2013-11-22 06:32:00,
2013-11-21 23:37:00,15.5,8.7,30.34,NE,45,4.0,6.0,74,0.00,,,0.00,WUHU216HW,2013-11-22 06:37:00,
2013-11-21 23:42:00,15.8,8.6,30.34,North,0,4.0,8.1,73,0.00,,,0.00,WUHU216HW,2013-11-22 06:42:00,
2013-11-21 23:47:00,16.0,8.8,30.35,NNE,23,2.7,8.1,73,0.00,,,0.00,WUHU216HW,2013-11-22 06:47:00,
2013-11-21 23:52:00,16.2,9.0,30.35,NE,45,4.7,6.7,73,0.00,,,0.00,WUHU216HW,2013-11-22 06:52:00,
2013-11-21 23:57:00,16.2,8.7,30.35,NNE,23,4.9,6.7,72,0.00,,,0.00,WUHU216HW,2013-11-22 06:57:00,